{"data":{"norad_id":55396,"intl_designator":"2023-014F","name":"STARLINK-5283","alt_names":[],"object_type":"PAYLOAD","status":"ACTIVE","operator":null,"country":"US","launch_date":"2023-01-31","launch_site_code":"AFWTR","launch_vehicle":null,"mission":null,"orbit_class":"UNKNOWN","rcs_meters":null,"size_class":null,"mass_kg":null,"dimensions":null,"purposes":["comms"],"wikipedia_slug":null,"has_3d_model":false,"image_url":null,"decayed_at":null,"tle_current":{"epoch":"2026-09-20T19:03:51.792480Z","epoch_age_seconds":71195,"freshness":"FRESH","line1":"1 55396U 23014F   26263.79434945  .00000186  00000+0  23352-4 0  9995","line2":"2 55396  69.9973 292.3914 0003523 274.7728  85.3029 14.98330853201287","mean_motion":14.98330853,"eccentricity":0.0003523,"inclination_deg":69.9973,"raan_deg":292.3914,"arg_perigee_deg":274.7728,"mean_anomaly_deg":85.3029,"bstar":2.3352e-5,"rev_number":20128,"period_min":96.106944411963,"perigee_km":569.60470108736,"apogee_km":574.5018051397,"semimajor_km":6950.1902531135,"source":"CELESTRAK","updated_at":"2026-09-21T09:00:33.213849Z"}}}